User: anonymous   Login
Location: Columbia
(38.9520°N, 92.3340°W)
Time: 00:09:23
(UTC-06:00)
Language:

SJ-11-01 - Orbit

View from above orbital plane
View from above orbital plane
View from above satellite
View from above satellite

Ground track
Ground track

The orbit data is extracted from the following two-line orbital elements,

1 36088U 09061A   14354.70996600  .00001004  00000-0  21705-3 0  6939
2 36088 098.0141 037.1600 0010344 212.4401 147.6163 14.60292782271956
Epoch (UTC): 20 December 2014 17:02:21
Eccentricity: 0.0010344
inclination: 98.0141°
perigee height: 685 km
apogee height: 699 km
right ascension of ascending node: 37.1600°
argument of perigee: 212.4401°
revolutions per day: 14.60292782
mean anomaly at epoch: 147.6163°
orbit number at epoch: 27195

The dashed part of the orbit path shows where the satellite is in the earth's shadow,  

DLR